TimeCST,TemperatureF,Dew PointF,Humidity,Sea Level PressureIn,VisibilityMPH,Wind Direction,Wind SpeedMPH,Gust SpeedMPH,PrecipitationIn,Events,Conditions,WindDirDegrees,DateUTC
12:11 AM,19.4,14.0,80,29.72,10.0,Calm,Calm,-,N/A,,Overcast,0,2013-01-19 06:11:00
12:32 AM,19.4,14.0,80,29.72,4.0,Calm,Calm,-,N/A,,Overcast,0,2013-01-19 06:32:00
12:51 AM,19.4,14.0,80,29.73,5.0,Calm,Calm,-,N/A,,Overcast,0,2013-01-19 06:51:00
1:11 AM,19.4,14.0,80,29.73,10.0,Calm,Calm,-,N/A,,Overcast,0,2013-01-19 07:11:00
1:31 AM,17.6,14.0,86,29.72,10.0,Calm,Calm,-,N/A,,Overcast,0,2013-01-19 07:31:00
1:51 AM,19.4,14.0,80,29.71,10.0,Calm,Calm,-,N/A,,Overcast,0,2013-01-19 07:51:00
2:11 AM,19.4,14.0,80,29.72,3.0,Calm,Calm,-,N/A,,Overcast,0,2013-01-19 08:11:00
2:31 AM,19.4,14.0,80,29.72,3.0,Calm,Calm,-,N/A,,Overcast,0,2013-01-19 08:31:00
2:52 AM,19.4,14.0,80,29.70,10.0,Calm,Calm,-,N/A,,Overcast,0,2013-01-19 08:52:00
3:11 AM,19.4,14.0,80,29.70,10.0,Calm,Calm,-,N/A,,Overcast,0,2013-01-19 09:11:00
3:31 AM,19.4,14.0,80,29.69,3.0,Calm,Calm,-,N/A,,Overcast,0,2013-01-19 09:31:00
3:52 AM,19.4,14.0,80,29.69,1.8,Calm,Calm,-,0.02,,Overcast,0,2013-01-19 09:52:00
4:11 AM,19.4,14.0,80,29.68,1.8,Calm,Calm,-,0.01,,Overcast,0,2013-01-19 10:11:00
4:31 AM,19.4,14.0,80,29.67,2.0,Calm,Calm,-,0.01,,Overcast,0,2013-01-19 10:31:00
4:52 AM,19.4,15.8,86,29.66,1.2,Calm,Calm,-,0.02,,Overcast,0,2013-01-19 10:52:00
5:11 AM,19.4,15.8,86,29.64,1.0,Calm,Calm,-,N/A,Snow,Snow,0,2013-01-19 11:11:00
5:31 AM,19.4,15.8,86,29.64,1.5,Calm,Calm,-,0.01,Snow,Light Snow,0,2013-01-19 11:31:00
5:52 AM,19.4,15.8,86,29.63,1.0,Calm,Calm,-,0.03,Snow,Snow,0,2013-01-19 11:52:00
6:11 AM,19.4,15.8,86,29.62,0.8,Calm,Calm,-,0.01,Snow,Snow,0,2013-01-19 12:11:00
6:32 AM,21.2,15.8,80,29.63,1.0,Calm,Calm,-,0.02,Snow,Light Snow,0,2013-01-19 12:32:00
6:52 AM,21.2,17.6,86,29.63,2.0,Calm,Calm,-,0.04,Snow,Light Snow,0,2013-01-19 12:52:00
7:11 AM,21.2,15.8,80,29.63,2.0,Calm,Calm,-,0.01,Snow,Light Snow,0,2013-01-19 13:11:00
7:32 AM,21.2,15.8,80,29.60,10.0,Calm,Calm,-,0.02,,Overcast,0,2013-01-19 13:32:00
7:51 AM,21.2,15.8,80,29.60,10.0,Calm,Calm,-,0.02,,Overcast,0,2013-01-19 13:51:00
8:11 AM,21.2,17.6,86,29.60,10.0,Calm,Calm,-,N/A,,Overcast,0,2013-01-19 14:11:00
8:32 AM,21.2,17.6,86,29.59,10.0,Calm,Calm,-,N/A,,Overcast,0,2013-01-19 14:32:00
8:51 AM,21.2,17.6,86,29.58,10.0,Calm,Calm,-,N/A,,Overcast,0,2013-01-19 14:51:00
9:32 AM,21.2,17.6,86,29.56,7.0,SSW,4.6,-,N/A,,Overcast,210,2013-01-19 15:32:00
9:51 AM,23.0,17.6,80,29.56,5.0,SW,4.6,-,N/A,,Haze,230,2013-01-19 15:51:00
10:11 AM,23.0,17.6,80,29.55,5.0,SW,3.5,-,N/A,,Haze,230,2013-01-19 16:11:00
10:32 AM,24.8,19.4,80,29.54,5.0,SW,4.6,-,N/A,,Haze,220,2013-01-19 16:32:00
10:51 AM,24.8,19.4,80,29.53,5.0,SW,3.5,-,N/A,,Haze,230,2013-01-19 16:51:00
11:11 AM,26.6,21.2,80,29.51,7.0,West,8.1,17.3,N/A,,Overcast,270,2013-01-19 17:11:00
11:32 AM,26.6,21.2,80,29.51,5.0,West,10.4,19.6,N/A,,Haze,280,2013-01-19 17:32:00
11:51 AM,26.6,21.2,80,29.51,5.0,West,15.0,24.2,N/A,,Overcast,280,2013-01-19 17:51:00
12:11 PM,26.6,21.2,80,29.51,7.0,West,11.5,19.6,N/A,,Overcast,270,2013-01-19 18:11:00
12:32 PM,26.6,21.2,80,29.49,7.0,West,11.5,20.7,N/A,,Overcast,280,2013-01-19 18:32:00
12:51 PM,26.6,21.2,80,29.50,10.0,West,13.8,26.5,N/A,,Overcast,270,2013-01-19 18:51:00
1:11 PM,26.6,19.4,74,29.50,10.0,West,12.7,23.0,N/A,,Overcast,280,2013-01-19 19:11:00
1:32 PM,26.6,19.4,74,29.50,10.0,WNW,12.7,23.0,N/A,,Overcast,290,2013-01-19 19:32:00
1:51 PM,24.8,17.6,74,29.52,5.0,WNW,9.2,20.7,N/A,,Haze,300,2013-01-19 19:51:00
2:11 PM,21.2,12.2,68,29.53,1.8,WNW,13.8,26.5,N/A,Snow,Light Snow,290,2013-01-19 20:11:00
2:32 PM,19.4,12.2,74,29.54,1.8,WNW,10.4,20.7,N/A,Snow,Light Snow,300,2013-01-19 20:32:00
2:51 PM,19.4,10.4,68,29.55,1.0,WNW,16.1,25.3,N/A,Snow,Light Snow,290,2013-01-19 20:51:00
3:11 PM,17.6,10.4,73,29.56,1.0,WNW,16.1,28.8,N/A,Snow,Light Snow,290,2013-01-19 21:11:00
3:32 PM,15.8,10.4,79,29.58,0.2,WNW,5.8,23.0,N/A,Snow,Snow,300,2013-01-19 21:32:00
3:51 PM,14.0,3.2,62,29.60,2.5,WNW,13.8,33.4,N/A,,Haze,290,2013-01-19 21:51:00
4:12 PM,12.2,3.2,67,29.62,4.0,West,11.5,21.9,N/A,,Haze,280,2013-01-19 22:12:00
4:31 PM,10.4,3.2,73,29.65,1.2,WNW,9.2,20.7,N/A,,Haze,300,2013-01-19 22:31:00
4:51 PM,10.4,1.4,67,29.67,1.2,WNW,8.1,-,N/A,Snow,Light Snow,290,2013-01-19 22:51:00
5:11 PM,8.6,-0.4,67,29.70,10.0,West,11.5,24.2,N/A,,Mostly Cloudy,280,2013-01-19 23:11:00
5:31 PM,8.6,-2.2,62,29.72,3.0,WNW,13.8,25.3,N/A,,Haze,290,2013-01-19 23:31:00
5:52 PM,6.8,-2.2,67,29.74,7.0,WNW,12.7,24.2,N/A,,Overcast,290,2013-01-19 23:52:00
6:11 PM,6.8,-4.0,61,29.76,5.0,WNW,8.1,20.7,N/A,,Haze,290,2013-01-20 00:11:00
6:31 PM,5.0,-2.2,72,29.79,2.5,NW,6.9,17.3,N/A,Snow,Light Snow,320,2013-01-20 00:31:00
6:52 PM,3.2,-5.8,66,29.81,2.5,NW,9.2,21.9,N/A,,Haze,310,2013-01-20 00:52:00
7:11 PM,3.2,-7.6,61,29.83,5.0,NW,6.9,20.7,N/A,,Haze,310,2013-01-20 01:11:00
7:31 PM,1.4,-7.6,66,29.85,7.0,WNW,12.7,20.7,N/A,,Mostly Cloudy,300,2013-01-20 01:31:00
7:52 PM,1.4,-9.4,61,29.87,7.0,NW,10.4,23.0,N/A,,Overcast,320,2013-01-20 01:52:00
8:11 PM,-0.4,-9.4,66,29.89,7.0,NW,12.7,24.2,N/A,,Mostly Cloudy,320,2013-01-20 02:11:00
8:31 PM,-0.4,-9.4,66,29.91,7.0,NW,9.2,25.3,N/A,,Mostly Cloudy,320,2013-01-20 02:31:00
8:52 PM,-0.4,-9.4,66,29.92,7.0,NW,13.8,26.5,N/A,,Scattered Clouds,310,2013-01-20 02:52:00
9:11 PM,-0.4,-9.4,66,29.93,7.0,NW,12.7,27.6,N/A,,Scattered Clouds,310,2013-01-20 03:11:00
9:31 PM,-0.4,-9.4,66,29.94,7.0,NW,11.5,24.2,N/A,,Clear,310,2013-01-20 03:31:00
9:52 PM,-0.4,-9.4,66,29.95,4.0,NW,15.0,28.8,N/A,,Haze,310,2013-01-20 03:52:00
10:11 PM,-0.4,-9.4,66,29.96,4.0,NW,13.8,24.2,N/A,Snow,Light Snow,310,2013-01-20 04:11:00
10:31 PM,-2.2,-11.2,66,29.96,5.0,NW,13.8,26.5,N/A,,Haze,310,2013-01-20 04:31:00
10:51 PM,-2.2,-11.2,66,29.97,3.0,NW,18.4,29.9,N/A,Snow,Light Snow,310,2013-01-20 04:51:00
11:11 PM,-2.2,-11.2,66,29.99,5.0,NW,15.0,31.1,N/A,,Haze,310,2013-01-20 05:11:00
11:32 PM,-2.2,-11.2,66,30.01,7.0,NW,16.1,26.5,N/A,,Clear,310,2013-01-20 05:32:00
11:51 PM,-2.2,-13.0,60,30.01,7.0,WNW,11.5,23.0,N/A,,Clear,300,2013-01-20 05:51:00